CST,Max TemperatureF,Mean TemperatureF,Min TemperatureF,Max Dew PointF,MeanDew PointF,Min DewpointF,Max Humidity, Mean Humidity, Min Humidity, Max Sea Level PressureIn, Mean Sea Level PressureIn, Min Sea Level PressureIn, Max VisibilityMiles, Mean VisibilityMiles, Min VisibilityMiles, Max Wind SpeedMPH, Mean Wind SpeedMPH, Max Gust SpeedMPH,PrecipitationIn, CloudCover, Events, WindDirDegrees
2012-11-1,32,28,24,32,24,23,100,88,75,30.17,30.12,30.06,10,10,7,15,10,21,0.00,7,,76
2012-11-2,28,27,26,28,26,23,100,95,86,30.11,30.09,30.07,10,6,0,15,11,18,0.25,8,Snow-Thunderstorm,119
2012-11-3,28,27,26,28,28,27,100,100,100,30.24,30.18,30.10,10,6,1,9,5,,0.27,8,Snow,43
2012-11-4,32,29,26,32,29,25,100,99,93,30.22,30.16,30.12,10,6,1,10,5,,0.03,8,Snow,131
2012-11-5,44,38,32,45,35,32,100,99,87,30.20,29.98,29.73,10,6,0,28,8,43,0.01,7,Fog,211
2012-11-6,46,35,24,32,31,25,100,80,57,30.06,29.96,29.81,10,10,10,26,17,36,0.00,2,,303
2012-11-7,48,36,23,36,31,23,100,79,54,30.06,29.85,29.69,10,10,8,20,9,29,0.00,1,,175
2012-11-8,44,34,24,41,31,25,100,88,75,30.19,30.01,29.71,10,10,10,25,14,33,0.00,7,,2
2012-11-9,26,24,21,27,23,18,100,95,80,30.19,30.07,29.91,10,8,2,25,17,30,0.00,8,Snow,63
2012-11-10,28,22,17,28,24,18,100,100,93,29.91,29.72,29.66,5,2,0,22,9,26,14.92,8,Fog-Snow,350
2012-11-11,17,14,10,18,12,9,100,90,79,29.87,29.76,29.70,10,5,0,26,19,33,1.45,8,Snow-Thunderstorm,289
2012-11-12,19,12,5,16,5,0,100,82,67,30.11,30.04,29.88,10,7,1,25,17,36,0.05,1,Snow,273
2012-11-13,26,17,8,25,17,7,100,93,86,30.17,30.14,30.10,10,8,0,10,6,,0.00,4,Fog-Rain,192
2012-11-14,35,22,8,32,21,7,100,94,80,30.14,30.04,29.97,10,8,0,12,5,,0.00,0,Fog,200
2012-11-15,32,23,14,27,19,14,100,87,69,30.42,30.31,30.06,10,10,8,15,10,20,0.00,0,,245
2012-11-16,37,29,21,32,25,14,100,80,55,30.31,30.09,29.97,10,10,2,23,12,34,0.00,0,,177
2012-11-17,37,30,23,34,28,23,100,98,87,30.05,30.01,29.98,10,6,0,9,3,,0.00,2,Fog,128
2012-11-18,41,31,21,39,30,21,100,99,87,29.98,29.88,29.82,10,4,0,12,6,,0.00,2,Fog-Snow,132
2012-11-19,41,32,24,36,31,25,100,91,70,30.13,30.04,29.87,10,10,9,15,9,20,0.00,0,,263
2012-11-20,42,34,26,36,31,27,100,84,70,30.07,29.91,29.84,10,10,10,15,9,21,0.00,0,,203
2012-11-21,46,38,30,41,35,30,100,95,81,29.86,29.70,29.55,10,10,10,17,7,21,0.00,0,,116
2012-11-22,32,22,12,32,21,7,100,92,79,30.37,29.99,29.61,10,8,2,26,20,33,0.18,7,Snow,319
2012-11-23,14,10,5,7,4,1,92,83,73,30.50,30.41,30.22,10,10,10,23,14,31,0.00,1,Snow,328
2012-11-24,35,22,10,32,20,9,100,86,69,30.22,29.90,29.71,10,10,8,25,14,31,0.00,6,Snow,228
2012-11-25,26,14,1,25,12,0,93,83,67,30.29,30.05,29.90,10,10,8,25,15,30,0.00,6,Snow,311
2012-11-26,28,14,0,21,9,-4,100,84,68,30.34,30.23,30.10,10,10,10,20,9,24,0.00,2,,250
2012-11-27,26,22,17,25,22,16,100,93,86,30.21,30.12,30.06,10,10,9,14,7,20,0.00,8,,294
2012-11-28,35,24,14,27,22,10,100,88,65,30.21,30.09,29.97,10,9,3,21,9,23,0.00,4,,211
2012-11-29,15,12,8,12,8,5,100,84,67,30.15,30.11,30.06,10,10,10,17,12,21,0.00,3,,90
2012-11-30,32,24,15,28,22,12,100,95,80,30.10,29.91,29.67,10,5,1,15,10,22,0.00,5,,151